• In Belgium
  • List of Countries
  • For 7 days
  • Water Temperature
  • Satellite Maps
  • Weather Map
  • Weather Widgets
  • user-avatar
    Login

    Hourly Weather Ansembourg

    Today, 17 October, Tuesday

    Time Temperature Precipitation Wind Pressure Humidity
    00:00 +13°C° 0 mm 1 mps 740 mmHg 86%
    01:00 +12°C° 0 mm 1 mps 739 mmHg 87%
    02:00 +12°C° 0 mm 1 mps 739 mmHg 88%
    03:00 +12°C° 0 mm 1 mps 739 mmHg 89%
    04:00 +12°C° 0 mm 1 mps 739 mmHg 90%
    05:00 +12°C° 0 mm 1 mps 739 mmHg 90%
    06:00 +12°C° 0 mm 1 mps 739 mmHg 91%
    07:00 +13°C° 0 mm 1 mps 740 mmHg 87%
    08:00 +15°C° 0 mm 1 mps 740 mmHg 82%
    09:00 +18°C° 0 mm 1 mps 740 mmHg 77%
    10:00 +19°C° 0 mm 1 mps 740 mmHg 75%
    11:00 +20°C° 0 mm 1 mps 739 mmHg 72%
    12:00 +22°C° 0 mm 1 mps 739 mmHg 70%
    13:00 +22°C° 0 mm 1 mps 739 mmHg 71%
    14:00 +22°C° 0 mm 1 mps 738 mmHg 73%
    15:00 +22°C° 0 mm 1 mps 738 mmHg 74%
    16:00 +20°C° 0 mm 1 mps 737 mmHg 80%
    17:00 +18°C° 0 mm 1 mps 737 mmHg 85%
    18:00 +15°C° 0 mm 1 mps 737 mmHg 90%
    19:00 +15°C° 0 mm 1 mps 736 mmHg 90%
    20:00 +14°C° 0 mm 1 mps 736 mmHg 90%
    21:00 +13°C° 0 mm 1 mps 736 mmHg 90%
    22:00 +13°C° 0 mm 1 mps 736 mmHg 89%
    23:00 +12°C° 0 mm 1 mps 735 mmHg 89%

    Tomorrow, 18 October, Wednesday

    Time Temperature Precipitation Wind Pressure Humidity
    00:00 +12°C° 0 mm 1 mps 735 mmHg 88%
    01:00 +11°C° 0 mm 1 mps 735 mmHg 87%
    02:00 +10°C° 0 mm 2 mps 734 mmHg 85%
    03:00 +10°C° 0 mm 2 mps 734 mmHg 84%
    04:00 +9°C° 0 mm 2 mps 734 mmHg 84%
    05:00 +9°C° 0 mm 2 mps 734 mmHg 84%
    06:00 +8°C° 0 mm 2 mps 734 mmHg 83%
    07:00 +10°C° 0 mm 2 mps 734 mmHg 79%
    08:00 +13°C° 0 mm 2 mps 734 mmHg 74%
    09:00 +14°C° 0 mm 2 mps 734 mmHg 70%
    10:00 +16°C° 0 mm 2 mps 734 mmHg 68%
    11:00 +17°C° 0 mm 3 mps 734 mmHg 66%
    12:00 +18°C° 0 mm 3 mps 734 mmHg 63%
    13:00 +18°C° 0 mm 2 mps 734 mmHg 66%
    14:00 +18°C° 0 mm 2 mps 733 mmHg 68%
    15:00 +18°C° 0 mm 2 mps 733 mmHg 70%
    16:00 +17°C° 0 mm 2 mps 733 mmHg 76%
    17:00 +15°C° 0 mm 1 mps 733 mmHg 82%
    18:00 +13°C° 0 mm 1 mps 733 mmHg 87%
    19:00 +13°C° 0 mm 1 mps 733 mmHg 88%
    20:00 +13°C° 0 mm 1 mps 733 mmHg 89%
    21:00 +12°C° 0 mm 1 mps 733 mmHg 90%
    22:00 +12°C° 0 mm 1 mps 733 mmHg 90%
    23:00 +12°C° 0 mm 1 mps 733 mmHg 91%

    Day after tomorrow, 19 October, Thursday

    Time Temperature Precipitation Wind Pressure Humidity
    00:00 +12°C° 0 mm 1 mps 733 mmHg 91%
    01:00 +11°C° 0 mm 1 mps 732 mmHg 90%
    02:00 +11°C° 0 mm 1 mps 732 mmHg 89%
    03:00 +11°C° 0 mm 1 mps 732 mmHg 88%
    04:00 +11°C° 0 mm 1 mps 732 mmHg 87%
    05:00 +11°C° 0 mm 1 mps 732 mmHg 87%
    06:00 +11°C° 0 mm 1 mps 732 mmHg 87%
    07:00 +12°C° 0 mm 2 mps 732 mmHg 81%
    08:00 +13°C° 0 mm 3 mps 732 mmHg 76%
    09:00 +15°C° 0 mm 4 mps 732 mmHg 71%
    10:00 +17°C° 0 mm 4 mps 732 mmHg 67%
    11:00 +19°C° 0 mm 5 mps 732 mmHg 64%
    12:00 +20°C° 0 mm 6 mps 732 mmHg 60%
    13:00 +19°C° 0 mm 5 mps 732 mmHg 62%
    14:00 +19°C° 0 mm 5 mps 731 mmHg 65%
    15:00 +19°C° 0 mm 4 mps 731 mmHg 67%
    16:00 +17°C° 0 mm 4 mps 731 mmHg 69%
    17:00 +15°C° 0 mm 4 mps 731 mmHg 71%
    18:00 +14°C° 0 mm 3 mps 731 mmHg 72%
    19:00 +14°C° 0 mm 4 mps 731 mmHg 72%
    20:00 +14°C° 0 mm 4 mps 731 mmHg 72%
    21:00 +13°C° 0 mm 4 mps 731 mmHg 72%
    22:00 +13°C° 0.1 mm 4 mps 731 mmHg 74%
    23:00 +13°C° 0.1 mm 4 mps 731 mmHg 76%

    20 October, Friday

    Time Temperature Precipitation Wind Pressure Humidity
    00:00 +14°C° 0.1 mm 4 mps 731 mmHg 78%
    01:00 +14°C° 0.2 mm 4 mps 730 mmHg 81%
    02:00 +14°C° 0.2 mm 5 mps 730 mmHg 84%
    03:00 +14°C° 0.2 mm 5 mps 730 mmHg 87%
    04:00 +14°C° 0.3 mm 6 mps 731 mmHg 88%
    05:00 +13°C° 0.3 mm 6 mps 731 mmHg 89%
    06:00 +12°C° 0.3 mm 7 mps 731 mmHg 90%
    07:00 +13°C° 0.1 mm 6 mps 732 mmHg 87%
    08:00 +13°C° 0.1 mm 6 mps 733 mmHg 85%
    09:00 +13°C° 0.1 mm 6 mps 733 mmHg 83%
    10:00 +14°C° 0 mm 6 mps 733 mmHg 77%
    11:00 +15°C° 0 mm 7 mps 734 mmHg 71%
    12:00 +15°C° 0 mm 7 mps 734 mmHg 65%
    13:00 +15°C° 0 mm 6 mps 734 mmHg 68%
    14:00 +15°C° 0 mm 5 mps 734 mmHg 70%
    15:00 +15°C° 0 mm 4 mps 733 mmHg 72%
    16:00 +14°C° 0 mm 3 mps 733 mmHg 79%
    17:00 +13°C° 0 mm 3 mps 733 mmHg 85%
    18:00 +13°C° 0 mm 2 mps 733 mmHg 91%
    19:00 +13°C° 0 mm 2 mps 733 mmHg 92%
    20:00 +12°C° 0 mm 3 mps 732 mmHg 92%
    21:00 +13°C° 0 mm 3 mps 732 mmHg 92%
    22:00 +13°C° 0 mm 3 mps 732 mmHg 90%
    23:00 +13°C° 0 mm 4 mps 731 mmHg 87%

    21 October, Saturday

    Time Temperature Precipitation Wind Pressure Humidity
    00:00 +13°C° 0 mm 4 mps 731 mmHg 85%
    01:00 +14°C° 0 mm 5 mps 730 mmHg 83%
    02:00 +14°C° 0 mm 5 mps 730 mmHg 81%
    03:00 +14°C° 0 mm 5 mps 729 mmHg 79%
    04:00 +14°C° 0.3 mm 6 mps 729 mmHg 81%
    05:00 +14°C° 0.3 mm 6 mps 729 mmHg 82%
    06:00 +14°C° 0.3 mm 7 mps 729 mmHg 83%
    07:00 +14°C° 0.3 mm 7 mps 729 mmHg 83%
    08:00 +14°C° 0.3 mm 6 mps 730 mmHg 83%
    09:00 +13°C° 0.3 mm 6 mps 730 mmHg 83%
    10:00 +14°C° 0.1 mm 7 mps 730 mmHg 78%
    11:00 +13°C° 0.1 mm 8 mps 730 mmHg 74%
    12:00 +13°C° 0.1 mm 9 mps 730 mmHg 69%
    13:00 +13°C° 0.1 mm 9 mps 730 mmHg 67%
    14:00 +13°C° 0.1 mm 8 mps 730 mmHg 65%
    15:00 +14°C° 0.1 mm 7 mps 730 mmHg 62%
    16:00 +12°C° 0 mm 7 mps 731 mmHg 63%
    17:00 +10°C° 0 mm 6 mps 731 mmHg 64%
    18:00 +9°C° 0 mm 6 mps 731 mmHg 65%
    19:00 +9°C° 0 mm 6 mps 732 mmHg 66%
    20:00 +8°C° 0 mm 6 mps 732 mmHg 66%
    21:00 +8°C° 0 mm 6 mps 732 mmHg 67%
    22:00 +8°C° 0 mm 6 mps 732 mmHg 69%
    23:00 +7°C° 0 mm 6 mps 733 mmHg 70%

    22 October, Sunday

    Time Temperature Precipitation Wind Pressure Humidity
    00:00 +7°C° 0 mm 6 mps 733 mmHg 72%
    01:00 +7°C° 0 mm 6 mps 732 mmHg 74%
    02:00 +5°C° 0 mm 6 mps 732 mmHg 75%
    03:00 +5°C° 0 mm 6 mps 732 mmHg 77%
    04:00 +5°C° 0 mm 6 mps 732 mmHg 78%
    05:00 +5°C° 0 mm 6 mps 732 mmHg 79%
    06:00 +5°C° 0 mm 6 mps 732 mmHg 81%
    07:00 +5°C° 0 mm 7 mps 732 mmHg 79%
    08:00 +5°C° 0 mm 7 mps 733 mmHg 77%
    09:00 +6°C° 0 mm 8 mps 733 mmHg 75%
    10:00 +6°C° 0.1 mm 8 mps 733 mmHg 75%
    11:00 +6°C° 0.1 mm 8 mps 733 mmHg 74%
    12:00 +7°C° 0.1 mm 8 mps 733 mmHg 74%
    13:00 +7°C° 0.2 mm 8 mps 733 mmHg 75%
    14:00 +7°C° 0.2 mm 8 mps 733 mmHg 76%
    15:00 +6°C° 0.2 mm 7 mps 733 mmHg 76%
    16:00 +6°C° 0.2 mm 7 mps 733 mmHg 79%
    17:00 +6°C° 0.2 mm 7 mps 734 mmHg 81%
    18:00 +7°C° 0.2 mm 6 mps 734 mmHg 84%
    19:00 +7°C° 0.2 mm 6 mps 734 mmHg 85%
    20:00 +7°C° 0.2 mm 6 mps 734 mmHg 86%
    21:00 +7°C° 0.2 mm 6 mps 734 mmHg 86%
    22:00 +7°C° 0.1 mm 6 mps 734 mmHg 88%
    23:00 +7°C° 0.1 mm 6 mps 734 mmHg 89%
    Show more